Year,Month,Day,Hour,Minute,Value (Times are PST for temperature in C)
2015,08,04,00,00,16.40
2015,08,04,00,01,16.30
2015,08,04,00,02,16.30
2015,08,04,00,03,16.30
2015,08,04,00,04,16.20
2015,08,04,00,05,16.20
2015,08,04,00,06,16.20
2015,08,04,00,07,16.10
2015,08,04,00,08,16.10
2015,08,04,00,09,16.10
2015,08,04,00,10,16.10
2015,08,04,00,11,16.10
2015,08,04,00,12,16.10
2015,08,04,00,13,16.10
2015,08,04,00,14,16.10
2015,08,04,00,15,16.10
2015,08,04,00,16,16.10
2015,08,04,00,17,16.10
2015,08,04,00,18,16.10
2015,08,04,00,19,16.10
2015,08,04,00,20,16.00
2015,08,04,00,21,16.00
2015,08,04,00,22,15.90
2015,08,04,00,23,15.90
2015,08,04,00,24,15.90
2015,08,04,00,25,15.80
2015,08,04,00,26,15.80
2015,08,04,00,27,15.80
2015,08,04,00,28,15.80
2015,08,04,00,29,15.80
2015,08,04,00,30,15.80
2015,08,04,00,31,15.70
2015,08,04,00,32,15.70
2015,08,04,00,33,15.70
2015,08,04,00,34,15.70
2015,08,04,00,35,15.70
2015,08,04,00,36,15.70
2015,08,04,00,37,15.70
2015,08,04,00,38,15.60
2015,08,04,00,39,15.60
2015,08,04,00,40,15.60
2015,08,04,00,41,15.50
2015,08,04,00,42,15.50
2015,08,04,00,43,15.50
2015,08,04,00,44,15.40
2015,08,04,00,45,15.40
2015,08,04,00,46,15.40
2015,08,04,00,47,15.30
2015,08,04,00,48,15.30
2015,08,04,00,49,15.30
2015,08,04,00,50,15.30
2015,08,04,00,51,15.30
2015,08,04,00,52,15.30
2015,08,04,00,53,15.30
2015,08,04,00,54,15.30
2015,08,04,00,55,15.30
2015,08,04,00,56,15.30
2015,08,04,00,57,15.30
2015,08,04,00,58,15.30
2015,08,04,00,59,15.30
2015,08,04,01,00,15.30
2015,08,04,01,01,15.30
2015,08,04,01,02,15.30
2015,08,04,01,03,15.30
2015,08,04,01,04,15.30
2015,08,04,01,05,15.30
2015,08,04,01,06,15.30
2015,08,04,01,07,15.20
2015,08,04,01,08,15.20
2015,08,04,01,09,15.20
2015,08,04,01,10,15.20
2015,08,04,01,11,15.20
2015,08,04,01,12,15.20
2015,08,04,01,13,15.10
2015,08,04,01,14,15.10
2015,08,04,01,15,15.10
2015,08,04,01,16,15.10
2015,08,04,01,17,15.00
2015,08,04,01,18,15.00
2015,08,04,01,19,14.90
2015,08,04,01,20,14.90
2015,08,04,01,21,14.90
2015,08,04,01,22,14.90
2015,08,04,01,23,14.90
2015,08,04,01,24,14.80
2015,08,04,01,25,14.80
2015,08,04,01,26,14.80
2015,08,04,01,27,14.80
2015,08,04,01,28,14.80
2015,08,04,01,29,14.80
2015,08,04,01,30,14.90
2015,08,04,01,31,14.90
2015,08,04,01,32,14.90
2015,08,04,01,33,14.90
2015,08,04,01,34,14.90
2015,08,04,01,35,14.90
2015,08,04,01,36,14.80
2015,08,04,01,37,14.80
2015,08,04,01,38,14.80
2015,08,04,01,39,14.80
2015,08,04,01,40,14.80
2015,08,04,01,41,14.80
2015,08,04,01,42,14.80
2015,08,04,01,43,14.80
2015,08,04,01,44,14.80
2015,08,04,01,45,14.80
2015,08,04,01,46,14.80
2015,08,04,01,47,14.80
2015,08,04,01,48,14.80
2015,08,04,01,49,14.80
2015,08,04,01,50,14.80
2015,08,04,01,51,14.80
2015,08,04,01,52,14.80
2015,08,04,01,53,14.70
2015,08,04,01,54,14.70
2015,08,04,01,55,14.70
2015,08,04,01,56,14.60
2015,08,04,01,57,14.60
2015,08,04,01,58,14.60
2015,08,04,01,59,14.50
2015,08,04,02,00,14.50
2015,08,04,02,01,14.50
2015,08,04,02,02,14.50
2015,08,04,02,03,14.50
2015,08,04,02,04,14.50
2015,08,04,02,05,14.50
2015,08,04,02,06,14.50
2015,08,04,02,07,14.50
2015,08,04,02,08,14.50
2015,08,04,02,09,14.50
2015,08,04,02,10,14.50
2015,08,04,02,11,14.40
2015,08,04,02,12,14.40
2015,08,04,02,13,14.40
2015,08,04,02,14,14.40
2015,08,04,02,15,14.40
2015,08,04,02,16,14.30
2015,08,04,02,17,14.30
2015,08,04,02,18,14.30
2015,08,04,02,19,14.30
2015,08,04,02,20,14.30
2015,08,04,02,21,14.30
2015,08,04,02,22,14.30
2015,08,04,02,23,14.30
2015,08,04,02,24,14.30
2015,08,04,02,25,14.30
2015,08,04,02,26,14.30
2015,08,04,02,27,14.30
2015,08,04,02,28,14.30
2015,08,04,02,29,14.20
2015,08,04,02,30,14.20
2015,08,04,02,31,14.20
2015,08,04,02,32,14.20
2015,08,04,02,33,14.20
2015,08,04,02,34,14.20
2015,08,04,02,35,14.20
2015,08,04,02,36,14.20
2015,08,04,02,37,14.20
2015,08,04,02,38,14.20
2015,08,04,02,39,14.20
2015,08,04,02,40,14.20
2015,08,04,02,41,14.20
2015,08,04,02,42,14.30
2015,08,04,02,43,14.30
2015,08,04,02,44,14.20
2015,08,04,02,45,14.20
2015,08,04,02,46,14.20
2015,08,04,02,47,14.20
2015,08,04,02,48,14.20
2015,08,04,02,49,14.20
2015,08,04,02,50,14.20
2015,08,04,02,51,14.20
2015,08,04,02,52,14.20
2015,08,04,02,53,14.20
2015,08,04,02,54,14.30
2015,08,04,02,55,14.30
2015,08,04,02,56,14.30
2015,08,04,02,57,14.30
2015,08,04,02,58,14.30
2015,08,04,02,59,14.30
2015,08,04,03,00,14.30
2015,08,04,03,01,14.30
2015,08,04,03,02,14.30
2015,08,04,03,06,14.20
2015,08,04,03,07,14.20
2015,08,04,03,08,14.20
2015,08,04,03,09,14.20
2015,08,04,03,10,14.20
2015,08,04,03,11,14.20
2015,08,04,03,12,14.20
2015,08,04,03,13,14.20
2015,08,04,03,14,14.20
2015,08,04,03,15,14.20
2015,08,04,03,16,14.20
2015,08,04,03,17,14.10
2015,08,04,03,18,14.10
2015,08,04,03,19,14.10
2015,08,04,03,20,14.20
2015,08,04,03,21,14.20
2015,08,04,03,22,14.20
2015,08,04,03,23,14.20
2015,08,04,03,24,14.10
2015,08,04,03,25,14.10
2015,08,04,03,26,14.10
2015,08,04,03,27,14.00
2015,08,04,03,28,14.00
2015,08,04,03,29,14.00
2015,08,04,03,30,14.00
2015,08,04,03,31,14.00
2015,08,04,03,32,14.00
2015,08,04,03,33,14.00
2015,08,04,03,34,14.00
2015,08,04,03,35,14.00
2015,08,04,03,36,14.00
2015,08,04,03,37,14.00
2015,08,04,06,43,12.00
2015,08,04,06,44,12.00
2015,08,04,06,45,12.10
2015,08,04,06,46,12.10
2015,08,04,06,47,12.20
2015,08,04,06,48,12.20
2015,08,04,06,49,12.30
2015,08,04,06,50,12.40
2015,08,04,06,51,12.40
2015,08,04,06,52,12.50
2015,08,04,06,53,12.60
2015,08,04,06,54,12.60
2015,08,04,06,55,12.70
2015,08,04,06,56,12.70
2015,08,04,06,57,12.80
2015,08,04,06,58,12.90
2015,08,04,06,59,13.00
2015,08,04,07,00,13.10
2015,08,04,07,01,13.20
2015,08,04,07,02,13.30
2015,08,04,07,03,13.40
2015,08,04,07,04,13.50
2015,08,04,07,05,13.60
2015,08,04,07,06,13.60
2015,08,04,07,07,13.60
2015,08,04,07,08,13.70
2015,08,04,07,09,13.70
2015,08,04,07,10,13.70
2015,08,04,07,11,13.70
2015,08,04,07,12,13.70
2015,08,04,07,13,13.70
2015,08,04,07,14,13.80
2015,08,04,07,15,13.80
2015,08,04,07,16,13.80
2015,08,04,07,17,13.90
2015,08,04,07,18,13.90
2015,08,04,07,19,14.00
2015,08,04,07,20,14.10
2015,08,04,07,21,14.20
2015,08,04,07,22,14.30
2015,08,04,07,23,14.40
2015,08,04,07,24,14.50
2015,08,04,07,25,14.70
2015,08,04,07,26,14.80
2015,08,04,07,27,14.80
2015,08,04,07,28,14.90
2015,08,04,07,29,15.00
2015,08,04,07,30,15.10
2015,08,04,07,31,15.20
2015,08,04,07,32,15.20
2015,08,04,07,33,15.30
2015,08,04,07,34,15.30
2015,08,04,07,35,15.40
2015,08,04,07,36,15.50
2015,08,04,07,37,15.50
2015,08,04,07,38,15.60
2015,08,04,07,39,15.70
2015,08,04,07,40,15.70
2015,08,04,07,41,15.80
2015,08,04,07,42,15.90
2015,08,04,07,43,15.90
2015,08,04,07,44,16.00
2015,08,04,07,45,16.10
2015,08,04,07,46,16.10
2015,08,04,07,47,16.20
2015,08,04,07,48,16.30
2015,08,04,07,49,16.30
2015,08,04,07,50,16.40
2015,08,04,07,51,16.40
2015,08,04,07,52,16.40
2015,08,04,07,53,16.40
2015,08,04,07,54,16.40
2015,08,04,07,55,16.30
2015,08,04,07,56,16.30
2015,08,04,07,57,16.20
2015,08,04,07,58,16.20
2015,08,04,07,59,16.10
2015,08,04,08,00,16.00
2015,08,04,08,01,16.00
2015,08,04,08,02,16.10
2015,08,04,08,03,16.10
2015,08,04,08,04,16.10
2015,08,04,08,05,16.20
2015,08,04,08,06,16.20
2015,08,04,08,07,16.30
2015,08,04,08,08,16.30
2015,08,04,08,09,16.30
2015,08,04,08,10,16.30
2015,08,04,08,11,16.30
2015,08,04,08,12,16.30
2015,08,04,08,13,16.30
2015,08,04,08,14,16.30
2015,08,04,08,15,16.30
2015,08,04,08,16,16.40
2015,08,04,08,17,16.40
2015,08,04,08,18,16.40
2015,08,04,08,19,16.30
2015,08,04,08,20,16.40
2015,08,04,08,21,16.40
2015,08,04,08,22,16.40
2015,08,04,08,23,16.50
2015,08,04,08,24,16.60
2015,08,04,08,25,16.70
2015,08,04,08,26,16.70
2015,08,04,08,27,16.80
2015,08,04,08,28,16.90
2015,08,04,08,29,16.90
2015,08,04,08,30,16.90
2015,08,04,08,31,17.00
2015,08,04,08,32,17.10
2015,08,04,08,33,17.20
2015,08,04,08,34,17.30
2015,08,04,08,35,17.40
2015,08,04,08,36,17.50
2015,08,04,08,37,17.50
2015,08,04,08,38,17.60
2015,08,04,08,39,17.60
2015,08,04,08,40,17.60
2015,08,04,08,41,17.60
2015,08,04,08,42,17.60
2015,08,04,08,43,17.60
2015,08,04,08,44,17.50
2015,08,04,08,45,17.50
2015,08,04,08,46,17.40
2015,08,04,08,47,17.50
2015,08,04,08,48,17.50
2015,08,04,08,49,17.60
2015,08,04,08,50,17.70
2015,08,04,08,51,17.70
2015,08,04,08,52,17.60
2015,08,04,08,53,17.50
2015,08,04,08,54,17.40
2015,08,04,08,55,17.30
2015,08,04,08,56,17.20
2015,08,04,08,57,17.20
2015,08,04,08,58,17.20
2015,08,04,08,59,17.10
2015,08,04,09,00,17.10
2015,08,04,09,01,17.10
2015,08,04,09,02,17.20
2015,08,04,09,03,17.10
2015,08,04,09,04,17.10
2015,08,04,09,05,17.10
2015,08,04,09,06,17.10
2015,08,04,09,07,17.20
2015,08,04,09,08,17.20
2015,08,04,09,09,17.20
2015,08,04,09,10,17.20
2015,08,04,09,11,17.30
2015,08,04,09,12,17.30
2015,08,04,09,13,17.20
2015,08,04,09,14,17.00
2015,08,04,09,15,16.90
2015,08,04,09,16,16.90
2015,08,04,09,17,16.90
2015,08,04,09,18,17.00
2015,08,04,09,19,17.10
2015,08,04,09,20,17.20
2015,08,04,09,21,17.20
2015,08,04,09,22,17.10
2015,08,04,09,23,17.00
2015,08,04,09,24,16.90
2015,08,04,09,25,16.80
2015,08,04,09,26,16.80
2015,08,04,09,27,16.80
2015,08,04,09,28,16.90
2015,08,04,09,29,16.90
2015,08,04,09,30,16.90
2015,08,04,09,31,16.90
2015,08,04,09,32,16.90
2015,08,04,09,33,16.90
2015,08,04,09,34,16.90
2015,08,04,09,35,16.90
2015,08,04,09,36,17.00
2015,08,04,09,37,17.10
2015,08,04,09,38,17.10
2015,08,04,09,39,17.10
2015,08,04,09,40,16.90
2015,08,04,09,41,16.90
2015,08,04,09,42,16.90
2015,08,04,09,43,16.90
2015,08,04,09,44,16.90
2015,08,04,09,45,17.00
2015,08,04,09,46,17.10
2015,08,04,09,47,17.10
2015,08,04,09,48,17.20
2015,08,04,09,49,17.20
2015,08,04,09,50,17.20
2015,08,04,09,51,17.20
2015,08,04,09,52,17.20
2015,08,04,09,53,17.20
2015,08,04,09,54,17.10
2015,08,04,09,55,17.10
2015,08,04,09,56,17.10
2015,08,04,09,57,17.10
2015,08,04,09,58,17.20
2015,08,04,09,59,17.30
2015,08,04,10,00,17.40
2015,08,04,10,01,17.50
2015,08,04,10,02,17.70
2015,08,04,10,03,17.70
2015,08,04,10,04,17.80
2015,08,04,10,05,17.70
2015,08,04,10,06,17.60
2015,08,04,10,07,17.50
2015,08,04,10,08,17.50
2015,08,04,10,09,17.40
2015,08,04,10,10,17.40
2015,08,04,10,11,17.40
2015,08,04,10,12,17.40
2015,08,04,10,13,17.40
2015,08,04,10,14,17.40
2015,08,04,10,15,17.50
2015,08,04,10,16,17.60
2015,08,04,10,17,17.70
2015,08,04,10,18,17.90
2015,08,04,10,19,18.00
2015,08,04,10,20,18.10
2015,08,04,10,21,18.10
2015,08,04,10,22,18.20
2015,08,04,10,23,18.20
2015,08,04,10,24,18.30
2015,08,04,10,25,18.30
2015,08,04,10,26,18.40
2015,08,04,10,27,18.30
2015,08,04,10,28,18.30
2015,08,04,10,29,18.30
2015,08,04,10,30,18.30
2015,08,04,10,31,18.30
2015,08,04,10,32,18.20
2015,08,04,10,33,18.10
2015,08,04,10,34,18.10
2015,08,04,10,35,18.10
2015,08,04,10,36,18.00
2015,08,04,10,37,17.90
2015,08,04,10,38,18.00
2015,08,04,10,39,18.10
2015,08,04,10,40,18.20
2015,08,04,10,41,18.20
2015,08,04,10,42,18.20
2015,08,04,10,43,18.20
2015,08,04,10,44,18.20
2015,08,04,10,45,18.30
2015,08,04,10,46,18.30
2015,08,04,10,47,18.30
2015,08,04,10,48,18.30
2015,08,04,10,49,18.40
2015,08,04,10,50,18.40
2015,08,04,10,51,18.40
2015,08,04,10,52,18.50
2015,08,04,10,53,18.60
2015,08,04,10,54,18.60
2015,08,04,10,55,18.60
2015,08,04,10,56,18.60
2015,08,04,10,57,18.60
2015,08,04,10,58,18.60
2015,08,04,10,59,18.50
2015,08,04,11,00,18.50
2015,08,04,11,01,18.40
2015,08,04,11,02,18.30
2015,08,04,11,03,18.30
2015,08,04,11,04,18.30
2015,08,04,11,05,18.30
2015,08,04,11,06,18.40
2015,08,04,11,07,18.60
2015,08,04,11,08,18.60
2015,08,04,11,09,18.50
2015,08,04,11,10,18.40
2015,08,04,11,11,18.40
2015,08,04,11,12,18.50
2015,08,04,11,13,18.60
2015,08,04,11,14,18.80
2015,08,04,11,15,19.00
2015,08,04,11,16,19.20
2015,08,04,11,17,19.30
2015,08,04,11,18,19.50
2015,08,04,11,19,19.70
2015,08,04,11,20,19.80
2015,08,04,11,21,19.80
2015,08,04,11,22,19.80
2015,08,04,11,23,19.80
2015,08,04,11,24,19.80
2015,08,04,11,25,19.80
2015,08,04,11,26,19.70
2015,08,04,11,27,19.60
2015,08,04,11,28,19.60
2015,08,04,11,29,19.50
2015,08,04,11,30,19.30
2015,08,04,11,31,19.30
2015,08,04,11,32,19.20
2015,08,04,11,33,19.20
2015,08,04,11,34,19.20
2015,08,04,11,35,19.20
2015,08,04,11,36,19.10
2015,08,04,11,37,19.10
2015,08,04,11,38,19.10
2015,08,04,11,39,19.20
2015,08,04,11,40,19.10
2015,08,04,11,41,19.00
2015,08,04,11,42,19.00
2015,08,04,11,43,19.00
2015,08,04,11,44,19.10
2015,08,04,11,45,19.10
2015,08,04,11,46,19.20
2015,08,04,11,47,19.20
2015,08,04,11,48,19.20
2015,08,04,11,49,19.20
2015,08,04,11,50,19.30
2015,08,04,11,51,19.50
2015,08,04,11,52,19.60
2015,08,04,11,53,19.70
2015,08,04,11,54,19.70
2015,08,04,11,55,19.70
2015,08,04,11,56,19.70
2015,08,04,11,57,19.70
2015,08,04,11,58,19.70
2015,08,04,11,59,19.70
2015,08,04,12,00,19.70
2015,08,04,12,01,19.80
2015,08,04,12,02,19.80
2015,08,04,12,03,19.80
2015,08,04,12,04,19.80
2015,08,04,12,05,19.80
2015,08,04,12,06,19.90
2015,08,04,12,07,20.10
2015,08,04,12,08,20.20
2015,08,04,12,09,20.30
2015,08,04,12,10,20.40
2015,08,04,12,11,20.50
2015,08,04,12,12,20.60
2015,08,04,12,13,20.60
2015,08,04,12,14,20.70
2015,08,04,12,15,20.80
2015,08,04,12,16,20.90
2015,08,04,12,17,20.90
2015,08,04,12,18,20.90
2015,08,04,12,19,21.00
2015,08,04,12,20,21.00
2015,08,04,12,21,20.90
2015,08,04,12,22,20.90
2015,08,04,12,23,20.90
2015,08,04,12,24,20.90
2015,08,04,12,25,21.00
2015,08,04,12,26,21.20
2015,08,04,12,27,21.40
2015,08,04,12,28,21.60
2015,08,04,12,29,21.70
2015,08,04,12,30,21.60
2015,08,04,12,31,21.50
2015,08,04,12,32,21.50
2015,08,04,12,33,21.60
2015,08,04,12,34,21.70
2015,08,04,12,35,21.70
2015,08,04,12,36,21.70
2015,08,04,12,37,21.70
2015,08,04,12,38,21.80
2015,08,04,12,39,21.90
2015,08,04,12,40,21.90
2015,08,04,12,41,21.90
2015,08,04,12,42,22.00
2015,08,04,12,43,22.10
2015,08,04,12,44,22.10
2015,08,04,12,45,22.00
2015,08,04,12,46,21.80
2015,08,04,12,47,21.70
2015,08,04,12,48,21.60
2015,08,04,12,49,21.60
2015,08,04,12,50,21.70
2015,08,04,12,51,21.80
2015,08,04,12,52,21.90
2015,08,04,12,53,21.90
2015,08,04,12,54,21.70
2015,08,04,12,55,21.80
2015,08,04,12,56,21.90
2015,08,04,12,57,22.00
2015,08,04,12,58,22.00
2015,08,04,12,59,22.00
2015,08,04,13,00,22.00
2015,08,04,13,01,22.00
2015,08,04,13,02,22.00
2015,08,04,13,03,22.20
2015,08,04,13,04,22.10
2015,08,04,13,05,21.90
2015,08,04,13,06,21.80
2015,08,04,13,07,21.70
2015,08,04,13,08,21.60
2015,08,04,13,09,21.60
2015,08,04,13,10,21.70
2015,08,04,13,11,21.90
2015,08,04,13,12,22.00
2015,08,04,13,13,22.10
2015,08,04,13,14,22.10
2015,08,04,13,15,22.00
2015,08,04,13,16,22.00
2015,08,04,13,17,22.00
2015,08,04,13,18,22.00
2015,08,04,13,19,22.00
2015,08,04,13,20,22.00
2015,08,04,13,21,22.00
2015,08,04,13,22,22.00
2015,08,04,13,23,22.10
2015,08,04,13,24,22.20
2015,08,04,13,25,22.20
2015,08,04,13,26,22.20
2015,08,04,13,27,22.20
2015,08,04,13,28,22.20
2015,08,04,13,29,22.20
2015,08,04,13,30,22.20
2015,08,04,13,31,22.30
2015,08,04,13,32,22.50
2015,08,04,13,33,22.60
2015,08,04,13,34,22.60
2015,08,04,13,35,22.70
2015,08,04,13,36,22.60
2015,08,04,13,37,22.60
2015,08,04,13,38,22.60
2015,08,04,13,39,22.60
2015,08,04,13,40,22.70
2015,08,04,13,41,22.70
2015,08,04,13,42,22.70
2015,08,04,13,43,22.70
2015,08,04,13,44,22.80
2015,08,04,13,45,22.80
2015,08,04,13,46,22.80
2015,08,04,13,47,22.70
2015,08,04,13,48,22.70
2015,08,04,13,49,22.70
2015,08,04,13,50,22.70
2015,08,04,13,51,22.70
2015,08,04,13,52,22.70
2015,08,04,13,53,22.70
2015,08,04,13,54,22.60
2015,08,04,13,55,22.60
2015,08,04,13,56,22.60
2015,08,04,13,57,22.50
2015,08,04,13,58,22.50
2015,08,04,13,59,22.60
2015,08,04,14,00,22.70
2015,08,04,14,01,22.70
2015,08,04,14,02,22.70
2015,08,04,14,03,22.60
2015,08,04,14,04,22.70
2015,08,04,14,05,22.70
2015,08,04,14,06,22.70
2015,08,04,14,07,22.60
2015,08,04,14,08,22.60
2015,08,04,14,09,22.60
2015,08,04,14,10,22.60
2015,08,04,14,11,22.60
2015,08,04,14,12,22.60
2015,08,04,14,13,22.70
2015,08,04,14,14,22.70
2015,08,04,14,15,22.70
2015,08,04,14,16,22.70
2015,08,04,14,17,22.70
2015,08,04,14,18,22.50
2015,08,04,14,19,22.30
2015,08,04,14,20,22.20
2015,08,04,14,21,22.10
2015,08,04,14,22,22.00
2015,08,04,14,23,22.00
2015,08,04,14,24,21.90
2015,08,04,14,25,21.90
2015,08,04,14,26,22.00
2015,08,04,14,27,22.10
2015,08,04,14,28,22.10
2015,08,04,14,29,22.10
2015,08,04,14,30,22.10
2015,08,04,14,31,22.10
2015,08,04,14,32,22.10
2015,08,04,14,33,22.20
2015,08,04,14,34,22.20
2015,08,04,14,35,22.20
2015,08,04,14,36,22.30
2015,08,04,14,37,22.40
2015,08,04,14,38,22.50
2015,08,04,14,39,22.50
2015,08,04,14,40,22.50
2015,08,04,14,41,22.50
2015,08,04,14,42,22.50
2015,08,04,14,43,22.50
2015,08,04,14,44,22.70
2015,08,04,14,45,22.90
2015,08,04,14,46,22.90
2015,08,04,14,47,22.90
2015,08,04,14,48,22.90
2015,08,04,14,49,22.90
2015,08,04,14,50,23.00
2015,08,04,14,51,22.90
2015,08,04,14,52,22.80
2015,08,04,14,53,22.70
2015,08,04,14,54,22.50
2015,08,04,14,55,22.40
2015,08,04,14,56,22.30
2015,08,04,14,57,22.20
2015,08,04,14,58,22.20
2015,08,04,14,59,22.30
2015,08,04,15,00,22.30
2015,08,04,15,01,22.30
2015,08,04,15,02,22.20
2015,08,04,15,03,22.10
2015,08,04,15,04,22.00
2015,08,04,15,05,21.90
2015,08,04,15,06,21.80
2015,08,04,15,07,21.90
2015,08,04,15,08,22.00
2015,08,04,15,09,22.20
2015,08,04,15,10,22.20
2015,08,04,15,11,22.20
2015,08,04,15,12,22.30
2015,08,04,15,13,22.30
2015,08,04,15,14,22.30
2015,08,04,15,15,22.40
2015,08,04,15,16,22.40
2015,08,04,15,17,22.40
2015,08,04,15,18,22.50
2015,08,04,15,19,22.50
2015,08,04,15,20,22.50
2015,08,04,15,21,22.60
2015,08,04,15,22,22.60
2015,08,04,15,23,22.70
2015,08,04,15,24,22.80
2015,08,04,15,25,22.80
2015,08,04,15,26,22.80
2015,08,04,15,27,22.80
2015,08,04,15,28,22.70
2015,08,04,15,29,22.80
2015,08,04,15,30,22.90
2015,08,04,15,31,22.90
2015,08,04,15,32,22.80
2015,08,04,15,33,22.80
2015,08,04,15,34,22.70
2015,08,04,15,35,22.70
2015,08,04,15,36,22.80
2015,08,04,15,37,22.80
2015,08,04,15,38,22.90
2015,08,04,15,39,22.90
2015,08,04,15,40,22.90
2015,08,04,15,41,22.90
2015,08,04,15,42,22.80
2015,08,04,15,43,22.80
2015,08,04,15,44,22.80
2015,08,04,15,45,22.80
2015,08,04,15,46,22.80
2015,08,04,15,47,22.80
2015,08,04,15,48,22.90
2015,08,04,15,49,23.00
2015,08,04,15,50,23.00
2015,08,04,15,51,23.10
2015,08,04,15,52,23.10
2015,08,04,15,53,23.10
2015,08,04,15,54,23.20
2015,08,04,15,55,23.20
2015,08,04,15,56,23.20
2015,08,04,15,57,23.20
2015,08,04,15,58,23.30
2015,08,04,15,59,23.30
2015,08,04,16,00,23.40
2015,08,04,16,01,23.50
2015,08,04,16,02,23.70
2015,08,04,16,03,23.80
2015,08,04,16,04,23.90
2015,08,04,16,05,23.90
2015,08,04,16,06,24.10
2015,08,04,16,07,24.20
2015,08,04,16,08,24.30
2015,08,04,16,09,24.30
2015,08,04,16,10,24.40
2015,08,04,16,11,24.40
2015,08,04,16,12,24.40
2015,08,04,16,13,24.40
2015,08,04,16,14,24.50
2015,08,04,16,15,24.50
2015,08,04,16,16,24.60
2015,08,04,16,17,24.70
2015,08,04,16,18,24.80
2015,08,04,16,19,24.90
2015,08,04,16,20,24.80
2015,08,04,16,21,24.80
2015,08,04,16,22,24.70
2015,08,04,16,23,24.70
2015,08,04,16,24,24.70
2015,08,04,16,25,24.70
2015,08,04,16,26,24.90
2015,08,04,16,27,25.00
2015,08,04,16,28,25.10
2015,08,04,16,29,25.10
2015,08,04,16,30,25.10
2015,08,04,16,31,25.10
2015,08,04,16,32,25.20
2015,08,04,16,33,25.20
2015,08,04,16,34,25.30
2015,08,04,16,35,25.30
2015,08,04,16,36,25.20
2015,08,04,16,37,25.20
2015,08,04,16,38,25.30
2015,08,04,16,39,25.30
2015,08,04,16,40,25.40
2015,08,04,16,41,25.40
2015,08,04,16,42,25.40
2015,08,04,16,43,25.50
2015,08,04,16,44,25.50
2015,08,04,16,45,25.60
2015,08,04,16,46,25.70
2015,08,04,16,47,25.80
2015,08,04,16,48,25.90
2015,08,04,16,49,25.90
2015,08,04,16,50,25.90
2015,08,04,16,51,25.90
2015,08,04,16,52,25.80
2015,08,04,16,53,25.70
2015,08,04,16,54,25.50
2015,08,04,16,55,25.50
2015,08,04,16,56,25.40
2015,08,04,16,57,25.30
2015,08,04,16,58,25.30
2015,08,04,16,59,25.30
2015,08,04,17,00,25.30
2015,08,04,17,01,25.30
2015,08,04,17,02,25.30
2015,08,04,17,03,25.40
2015,08,04,17,04,25.40
2015,08,04,17,05,25.50
2015,08,04,17,06,25.50
2015,08,04,17,07,25.60
2015,08,04,17,08,25.60
2015,08,04,17,09,25.50
2015,08,04,17,10,25.40
2015,08,04,17,11,25.30
2015,08,04,17,12,25.30
2015,08,04,17,13,25.20
2015,08,04,17,14,25.20
2015,08,04,17,15,25.10
2015,08,04,17,16,25.00
2015,08,04,17,17,25.00
2015,08,04,17,18,25.00
2015,08,04,17,19,24.90
2015,08,04,17,20,24.90
2015,08,04,17,21,24.90
2015,08,04,17,22,24.80
2015,08,04,17,23,24.80
2015,08,04,17,24,24.70
2015,08,04,17,25,24.60
2015,08,04,17,26,24.50
2015,08,04,17,27,24.40
2015,08,04,17,28,24.40
2015,08,04,17,29,24.40
2015,08,04,17,30,24.40
2015,08,04,17,31,24.40
2015,08,04,17,32,24.40
2015,08,04,17,33,24.40
2015,08,04,17,34,24.30
2015,08,04,17,35,24.20
2015,08,04,17,36,24.00
2015,08,04,17,37,23.90
2015,08,04,17,38,23.70
2015,08,04,17,39,23.60
2015,08,04,17,40,23.50
2015,08,04,17,41,23.40
2015,08,04,17,42,23.40
2015,08,04,17,43,23.30
2015,08,04,17,44,23.20
2015,08,04,17,45,23.10
2015,08,04,17,46,23.00
2015,08,04,17,47,22.90
2015,08,04,17,48,22.90
2015,08,04,17,49,22.80
2015,08,04,17,50,22.80
2015,08,04,17,51,22.70
2015,08,04,17,52,22.70
2015,08,04,17,53,22.60
2015,08,04,17,54,22.60
2015,08,04,17,55,22.50
2015,08,04,17,56,22.50
2015,08,04,17,57,22.40
2015,08,04,17,58,22.30
2015,08,04,17,59,22.20
2015,08,04,18,00,22.10
2015,08,04,18,01,22.00
2015,08,04,18,02,21.90
2015,08,04,18,03,21.80
2015,08,04,18,04,21.70
2015,08,04,18,05,21.70
2015,08,04,18,06,21.60
2015,08,04,18,07,21.50
2015,08,04,18,08,21.40
2015,08,04,18,09,21.40
2015,08,04,18,10,21.40
2015,08,04,18,11,21.40
2015,08,04,18,12,21.30
2015,08,04,18,13,21.30
2015,08,04,18,14,21.20
2015,08,04,18,15,21.10
2015,08,04,18,16,21.00
2015,08,04,18,17,20.80
2015,08,04,18,18,20.70
2015,08,04,18,19,20.60
2015,08,04,18,20,20.50
2015,08,04,18,21,20.40
2015,08,04,18,22,20.40
2015,08,04,18,23,20.30
2015,08,04,18,24,20.20
2015,08,04,18,25,20.20
2015,08,04,18,26,20.20
2015,08,04,18,27,20.20
2015,08,04,18,28,20.20
2015,08,04,18,29,20.20
2015,08,04,18,30,20.20
2015,08,04,18,31,20.20
2015,08,04,18,32,20.20
2015,08,04,18,33,20.20
2015,08,04,18,34,20.20
2015,08,04,18,35,20.20
2015,08,04,18,36,20.30
2015,08,04,18,37,20.30
2015,08,04,18,38,20.20
2015,08,04,18,39,20.20
2015,08,04,18,40,20.20
2015,08,04,18,41,20.20
2015,08,04,18,42,20.10
2015,08,04,18,43,20.10
2015,08,04,18,44,20.00
2015,08,04,18,45,19.90
2015,08,04,18,46,19.80
2015,08,04,18,47,19.80
2015,08,04,18,48,19.70
2015,08,04,18,49,19.70
2015,08,04,18,50,19.70
2015,08,04,18,51,19.70
2015,08,04,18,52,19.70
2015,08,04,18,53,19.80
2015,08,04,18,54,19.90
2015,08,04,18,55,19.90
2015,08,04,18,56,19.90
2015,08,04,18,57,20.00
2015,08,04,18,58,19.90
2015,08,04,18,59,19.90
2015,08,04,19,00,19.90
2015,08,04,19,01,19.90
2015,08,04,19,02,19.80
2015,08,04,19,03,19.80
2015,08,04,19,04,19.70
2015,08,04,19,05,19.70
2015,08,04,19,06,19.60
2015,08,04,19,07,19.50
2015,08,04,19,08,19.50
2015,08,04,19,09,19.50
2015,08,04,19,10,19.40
2015,08,04,19,11,19.40
2015,08,04,19,12,19.50
2015,08,04,19,13,19.50
2015,08,04,19,14,19.50
2015,08,04,19,15,19.60
2015,08,04,19,16,19.60
2015,08,04,19,17,19.70
2015,08,04,19,18,19.70
2015,08,04,19,19,19.70
2015,08,04,19,20,19.80
2015,08,04,19,21,19.80
2015,08,04,19,22,19.90
2015,08,04,19,23,19.90
2015,08,04,19,24,20.00
2015,08,04,19,25,20.00
2015,08,04,19,26,20.10
2015,08,04,19,27,20.20
2015,08,04,19,28,20.20
2015,08,04,19,29,20.30
2015,08,04,19,30,20.30
2015,08,04,19,31,20.30
2015,08,04,19,32,20.40
2015,08,04,19,33,20.40
2015,08,04,19,34,20.40
2015,08,04,19,35,20.40
2015,08,04,19,36,20.40
2015,08,04,19,37,20.40
2015,08,04,19,38,20.40
2015,08,04,19,39,20.50
2015,08,04,19,40,20.50
2015,08,04,19,41,20.50
2015,08,04,19,42,20.60
2015,08,04,19,43,20.60
2015,08,04,19,44,20.60
2015,08,04,19,45,20.70
2015,08,04,19,46,20.70
2015,08,04,19,47,20.70
2015,08,04,19,48,20.70
2015,08,04,19,49,20.70
2015,08,04,19,50,20.70
2015,08,04,19,51,20.60
2015,08,04,19,52,20.60
2015,08,04,19,53,20.40
2015,08,04,19,54,20.30
2015,08,04,19,55,20.20
2015,08,04,19,56,20.10
2015,08,04,19,57,19.90
2015,08,04,19,58,19.80
2015,08,04,19,59,19.70
2015,08,04,20,00,19.60
2015,08,04,20,01,19.50
2015,08,04,20,02,19.40
2015,08,04,20,03,19.30
2015,08,04,20,04,19.30
2015,08,04,20,05,19.20
2015,08,04,20,06,19.20
2015,08,04,20,07,19.10
2015,08,04,20,08,19.10
2015,08,04,20,09,19.10
2015,08,04,20,10,19.10
2015,08,04,20,11,19.00
2015,08,04,20,12,19.00
2015,08,04,20,13,19.00
2015,08,04,20,14,19.00
2015,08,04,20,15,19.00
2015,08,04,20,16,18.90
2015,08,04,20,17,18.90
2015,08,04,20,18,18.90
2015,08,04,20,19,18.90
2015,08,04,20,20,18.80
2015,08,04,20,21,18.80
2015,08,04,20,22,18.80
2015,08,04,20,23,18.80
2015,08,04,20,24,18.80
2015,08,04,20,25,18.80
2015,08,04,20,26,18.70
2015,08,04,20,27,18.70